Location: Corralito
(10.5000°N, 67.1333°W)
Time: 13:25:14
(UTC+00:00)

Iridium 921 - Pass Details

Date: 18 April 2024
Orbit: 450 x 454 km, 86.4° (Epoch: 24 May)

Event Time Altitude Azimuth Distance (km) Brightness Sun altitude
Rises 23:39:55 0° 359° (N) 2,443 8.3 -15.3°
Reaches altitude 10° 23:41:58 10° 359° (N) 1,574 7.3 -15.8°
Maximum altitude 23:45:23 88° 280° (W) 454 4.3 -16.6°
Drops below altitude 10° 23:48:49 10° 181° (S) 1,581 7.0 -17.4°
Enters shadow 23:49:40 - 180° (S) 1,940 7.5 -17.6°
